,,PressureMeas_1m,,PRMeasQMR101_1,,RHStat155_1m_1,,SRMeasQMS101R_1m,,TAStat155_1m_1,,GenWind_1,,GenWind_1,
2018-06-14, 00:00:07,VALID,917.947,VALID,0.0,VALID,99.135,VALID,-0.035,VALID,19.162,VALID,114.0,VALID,1.533,
2018-06-14, 00:01:07,VALID,917.939,VALID,0.0,VALID,99.093,VALID,-0.03,VALID,19.136,VALID,110.0,VALID,1.395,
2018-06-14, 00:02:07,VALID,917.907,VALID,0.0,VALID,99.078,VALID,-0.031,VALID,19.111,VALID,106.0,VALID,1.049,
2018-06-14, 00:03:07,VALID,917.888,VALID,0.0,VALID,99.077,VALID,-0.025,VALID,19.1,VALID,105.0,VALID,0.909,
2018-06-14, 00:04:07,VALID,917.857,VALID,0.0,VALID,99.083,VALID,-0.0,VALID,19.09,VALID,107.0,VALID,0.733,
2018-06-14, 00:05:07,VALID,917.842,VALID,0.0,VALID,99.082,VALID,0.001,VALID,19.083,VALID,118.0,VALID,1.395,
2018-06-14, 00:06:07,VALID,917.808,VALID,0.0,VALID,99.106,VALID,0.005,VALID,19.111,VALID,121.0,VALID,1.561,
2018-06-14, 00:07:07,VALID,917.788,VALID,0.0,VALID,99.113,VALID,-0.006,VALID,19.137,VALID,116.0,VALID,1.545,
2018-06-14, 00:08:07,VALID,917.766,VALID,0.0,VALID,99.11,VALID,0.01,VALID,19.157,VALID,114.0,VALID,1.452,
2018-06-14, 00:09:07,VALID,917.743,VALID,0.0,VALID,99.097,VALID,-0.005,VALID,19.16,VALID,111.0,VALID,1.364,
2018-06-14, 00:10:07,VALID,917.734,VALID,0.0,VALID,99.102,VALID,0.004,VALID,19.126,VALID,106.0,VALID,0.967,
2018-06-14, 00:11:07,VALID,917.712,VALID,0.0,VALID,99.082,VALID,0.008,VALID,19.085,VALID,106.0,VALID,1.119,
2018-06-14, 00:12:07,VALID,917.7,VALID,0.0,VALID,99.115,VALID,-0.002,VALID,19.119,VALID,108.0,VALID,1.875,
2018-06-14, 00:13:07,VALID,917.69,VALID,0.0,VALID,99.117,VALID,0.018,VALID,19.138,VALID,102.0,VALID,1.414,
2018-06-14, 00:14:07,VALID,917.671,VALID,0.0,VALID,99.113,VALID,0.013,VALID,19.104,VALID,110.0,VALID,1.103,
2018-06-14, 00:15:07,VALID,917.674,VALID,0.0,VALID,99.097,VALID,-0.0,VALID,19.072,VALID,114.0,VALID,1.544,
2018-06-14, 00:16:07,VALID,917.684,VALID,0.0,VALID,99.128,VALID,0.008,VALID,19.1,VALID,111.0,VALID,1.774,
2018-06-14, 00:17:07,VALID,917.686,VALID,0.0,VALID,99.131,VALID,0.02,VALID,19.101,VALID,112.0,VALID,1.644,
2018-06-14, 00:18:07,VALID,917.691,VALID,0.0,VALID,99.119,VALID,0.002,VALID,19.101,VALID,117.0,VALID,1.785,
2018-06-14, 00:19:07,VALID,917.686,VALID,0.0,VALID,99.146,VALID,-0.005,VALID,19.125,VALID,117.0,VALID,2.048,
2018-06-14, 00:20:07,VALID,917.693,VALID,0.0,VALID,99.142,VALID,-0.004,VALID,19.175,VALID,121.0,VALID,1.918,
2018-06-14, 00:21:07,VALID,917.694,VALID,0.0,VALID,99.135,VALID,-0.003,VALID,19.179,VALID,120.0,VALID,2.04,
2018-06-14, 00:22:07,VALID,917.681,VALID,0.0,VALID,99.134,VALID,-0.006,VALID,19.173,VALID,120.0,VALID,1.951,
2018-06-14, 00:23:07,VALID,917.665,VALID,0.0,VALID,99.156,VALID,-0.008,VALID,19.203,VALID,122.0,VALID,1.968,
2018-06-14, 00:24:07,VALID,917.649,VALID,0.0,VALID,99.152,VALID,-0.006,VALID,19.212,VALID,124.0,VALID,1.768,
2018-06-14, 00:25:07,VALID,917.636,VALID,0.0,VALID,99.158,VALID,-0.017,VALID,19.222,VALID,122.0,VALID,2.189,
2018-06-14, 00:26:07,VALID,917.633,VALID,0.0,VALID,99.164,VALID,-0.016,VALID,19.274,VALID,118.0,VALID,2.227,
2018-06-14, 00:27:07,VALID,917.618,VALID,0.0,VALID,99.157,VALID,-0.004,VALID,19.283,VALID,117.0,VALID,2.395,
2018-06-14, 00:28:07,VALID,917.613,VALID,0.0,VALID,99.199,VALID,0.005,VALID,19.318,VALID,116.0,VALID,1.975,
2018-06-14, 00:29:07,VALID,917.594,VALID,0.0,VALID,99.167,VALID,-0.01,VALID,19.298,VALID,111.0,VALID,1.793,
2018-06-14, 00:30:07,VALID,917.575,VALID,0.0,VALID,99.15,VALID,-0.037,VALID,19.309,VALID,109.0,VALID,1.512,
2018-06-14, 00:31:07,VALID,917.563,VALID,0.0,VALID,99.156,VALID,-0.023,VALID,19.33,VALID,108.0,VALID,1.516,
2018-06-14, 00:32:06,VALID,917.557,VALID,0.0,VALID,99.16,VALID,0.004,VALID,19.344,VALID,98.0,VALID,1.945,
2018-06-14, 00:33:06,VALID,917.556,VALID,0.0,VALID,99.17,VALID,0.001,VALID,19.365,VALID,93.0,VALID,1.796,
2018-06-14, 00:34:06,VALID,917.544,VALID,0.0,VALID,99.161,VALID,0.007,VALID,19.326,VALID,99.0,VALID,1.371,
2018-06-14, 00:35:06,VALID,917.543,VALID,0.0,VALID,99.16,VALID,0.025,VALID,19.299,VALID,107.0,VALID,1.604,
2018-06-14, 00:36:06,VALID,917.523,VALID,0.0,VALID,99.167,VALID,0.004,VALID,19.318,VALID,108.0,VALID,1.575,
2018-06-14, 00:37:06,VALID,917.513,VALID,0.0,VALID,99.162,VALID,-0.005,VALID,19.299,VALID,108.0,VALID,1.729,
2018-06-14, 00:38:06,VALID,917.5,VALID,0.0,VALID,99.139,VALID,0.014,VALID,19.295,VALID,111.0,VALID,1.638,
2018-06-14, 00:39:06,VALID,917.476,VALID,0.0,VALID,99.158,VALID,0.005,VALID,19.324,VALID,115.0,VALID,2.04,
2018-06-14, 00:40:06,VALID,917.478,VALID,0.0,VALID,99.186,VALID,0.009,VALID,19.341,VALID,118.0,VALID,1.968,
2018-06-14, 00:41:06,VALID,917.463,VALID,0.0,VALID,99.163,VALID,0.002,VALID,19.363,VALID,118.0,VALID,1.965,
2018-06-14, 00:42:06,VALID,917.455,VALID,0.0,VALID,99.139,VALID,0.007,VALID,19.337,VALID,118.0,VALID,1.797,
2018-06-14, 00:43:06,VALID,917.441,VALID,0.0,VALID,99.156,VALID,0.007,VALID,19.313,VALID,114.0,VALID,1.671,
2018-06-14, 00:44:06,VALID,917.441,VALID,0.0,VALID,99.118,VALID,-0.001,VALID,19.276,VALID,114.0,VALID,1.706,
2018-06-14, 00:45:06,VALID,917.444,VALID,0.0,VALID,99.141,VALID,-0.003,VALID,19.269,VALID,119.0,VALID,1.741,
2018-06-14, 00:46:06,VALID,917.45,VALID,0.0,VALID,99.136,VALID,0.006,VALID,19.244,VALID,128.0,VALID,1.705,
2018-06-14, 00:47:06,VALID,917.434,VALID,0.0,VALID,99.162,VALID,0.008,VALID,19.261,VALID,128.0,VALID,1.644,
2018-06-14, 00:48:06,VALID,917.439,VALID,0.0,VALID,99.149,VALID,-0.0,VALID,19.292,VALID,133.0,VALID,1.506,
2018-06-14, 00:49:06,VALID,917.433,VALID,0.0,VALID,99.152,VALID,0.013,VALID,19.308,VALID,127.0,VALID,1.321,
2018-06-14, 00:50:06,VALID,917.41,VALID,0.0,VALID,99.14,VALID,0.0,VALID,19.285,VALID,133.0,VALID,1.023,
2018-06-14, 00:51:06,VALID,917.389,VALID,0.0,VALID,99.123,VALID,0.004,VALID,19.261,VALID,136.0,VALID,0.679,
2018-06-14, 00:52:06,VALID,917.385,VALID,0.0,VALID,99.122,VALID,0.019,VALID,19.253,VALID,134.0,VALID,1.032,
2018-06-14, 00:53:06,VALID,917.373,VALID,0.0,VALID,99.122,VALID,0.001,VALID,19.264,VALID,122.0,VALID,0.835,
2018-06-14, 00:54:06,VALID,917.359,VALID,0.0,VALID,99.128,VALID,0.035,VALID,19.237,VALID,117.0,VALID,1.263,
2018-06-14, 00:55:06,VALID,917.349,VALID,0.0,VALID,99.111,VALID,0.011,VALID,19.257,VALID,124.0,VALID,1.845,
2018-06-14, 00:56:06,VALID,917.328,VALID,0.0,VALID,99.151,VALID,0.021,VALID,19.328,VALID,121.0,VALID,1.906,
2018-06-14, 00:57:06,VALID,917.312,VALID,0.0,VALID,99.158,VALID,-0.005,VALID,19.34,VALID,117.0,VALID,2.087,
2018-06-14, 00:58:06,VALID,917.281,VALID,0.0,VALID,99.13,VALID,0.002,VALID,19.342,VALID,119.0,VALID,1.937,
2018-06-14, 00:59:06,VALID,917.239,VALID,0.0,VALID,99.124,VALID,-0.005,VALID,19.344,VALID,115.0,VALID,1.858,
2018-06-14, 01:00:06,VALID,917.204,VALID,0.0,VALID,99.095,VALID,-0.008,VALID,19.341,VALID,117.0,VALID,1.745,
2018-06-14, 01:01:06,VALID,917.177,VALID,0.0,VALID,99.09,VALID,0.016,VALID,19.361,VALID,117.0,VALID,1.876,
2018-06-14, 01:02:06,VALID,917.138,VALID,0.0,VALID,99.066,VALID,0.033,VALID,19.367,VALID,122.0,VALID,1.61,
2018-06-14, 01:03:06,VALID,917.101,VALID,0.0,VALID,99.022,VALID,0.008,VALID,19.354,VALID,125.0,VALID,1.702,
2018-06-14, 01:04:06,VALID,917.088,VALID,0.0,VALID,99.007,VALID,0.014,VALID,19.353,VALID,128.0,VALID,1.844,
2018-06-14, 01:05:06,VALID,917.075,VALID,0.0,VALID,98.983,VALID,0.009,VALID,19.327,VALID,119.0,VALID,1.628,
2018-06-14, 01:06:06,VALID,917.062,VALID,0.0,VALID,98.956,VALID,0.024,VALID,19.314,VALID,125.0,VALID,1.891,
2018-06-14, 01:07:06,VALID,917.068,VALID,0.0,VALID,98.954,VALID,0.0,VALID,19.316,VALID,125.0,VALID,2.343,
2018-06-14, 01:08:06,VALID,917.071,VALID,0.0,VALID,98.977,VALID,0.019,VALID,19.356,VALID,135.0,VALID,1.925,
2018-06-14, 01:09:06,VALID,917.084,VALID,0.0,VALID,98.97,VALID,0.0,VALID,19.377,VALID,131.0,VALID,1.753,
2018-06-14, 01:10:06,VALID,917.103,VALID,0.0,VALID,98.951,VALID,-0.006,VALID,19.373,VALID,130.0,VALID,1.816,
2018-06-14, 01:11:06,VALID,917.096,VALID,0.0,VALID,98.903,VALID,0.006,VALID,19.357,VALID,131.0,VALID,1.899,
2018-06-14, 01:12:06,VALID,917.129,VALID,0.0,VALID,98.879,VALID,0.001,VALID,19.366,VALID,126.0,VALID,2.321,
2018-06-14, 01:13:06,VALID,917.149,VALID,0.0,VALID,98.88,VALID,0.004,VALID,19.401,VALID,127.0,VALID,2.088,
2018-06-14, 01:14:06,VALID,917.167,VALID,0.0,VALID,98.812,VALID,0.006,VALID,19.363,VALID,121.0,VALID,1.519,
2018-06-14, 01:15:06,VALID,917.163,VALID,0.0,VALID,98.799,VALID,0.003,VALID,19.351,VALID,120.0,VALID,1.714,
2018-06-14, 01:16:06,VALID,917.172,VALID,0.0,VALID,98.74,VALID,0.026,VALID,19.325,VALID,122.0,VALID,1.671,
2018-06-14, 01:17:06,VALID,917.175,VALID,0.0,VALID,98.73,VALID,-0.008,VALID,19.325,VALID,128.0,VALID,1.45,
2018-06-14, 01:18:06,VALID,917.184,VALID,0.0,VALID,98.709,VALID,0.015,VALID,19.338,VALID,125.0,VALID,1.756,
2018-06-14, 01:19:06,VALID,917.182,VALID,0.0,VALID,98.707,VALID,-0.005,VALID,19.359,VALID,127.0,VALID,1.859,
2018-06-14, 01:20:06,VALID,917.193,VALID,0.0,VALID,98.682,VALID,-0.021,VALID,19.363,VALID,124.0,VALID,1.558,
2018-06-14, 01:21:06,VALID,917.195,VALID,0.0,VALID,98.606,VALID,-0.003,VALID,19.331,VALID,122.0,VALID,1.577,
2018-06-14, 01:22:06,VALID,917.204,VALID,0.0,VALID,98.582,VALID,-0.01,VALID,19.331,VALID,119.0,VALID,1.596,
2018-06-14, 01:23:06,VALID,917.203,VALID,0.0,VALID,98.549,VALID,-0.007,VALID,19.322,VALID,120.0,VALID,1.796,
2018-06-14, 01:24:06,VALID,917.202,VALID,0.0,VALID,98.483,VALID,-0.001,VALID,19.298,VALID,126.0,VALID,1.727,
2018-06-14, 01:25:06,VALID,917.218,VALID,0.0,VALID,98.452,VALID,-0.021,VALID,19.301,VALID,120.0,VALID,1.883,
2018-06-14, 01:26:06,VALID,917.219,VALID,0.0,VALID,98.376,VALID,-0.006,VALID,19.295,VALID,118.0,VALID,2.063,
2018-06-14, 01:27:06,VALID,917.203,VALID,0.0,VALID,98.308,VALID,-0.002,VALID,19.287,VALID,119.0,VALID,1.938,
2018-06-14, 01:28:06,VALID,917.207,VALID,0.0,VALID,98.231,VALID,0.005,VALID,19.283,VALID,122.0,VALID,2.139,
2018-06-14, 01:29:06,VALID,917.211,VALID,0.0,VALID,98.225,VALID,-0.014,VALID,19.285,VALID,127.0,VALID,1.902,
2018-06-14, 01:30:06,VALID,917.197,VALID,0.0,VALID,98.253,VALID,-0.003,VALID,19.282,VALID,126.0,VALID,1.816,
2018-06-14, 01:31:06,VALID,917.185,VALID,0.0,VALID,98.235,VALID,-0.001,VALID,19.282,VALID,123.0,VALID,2.212,
2018-06-14, 01:32:06,VALID,917.175,VALID,0.0,VALID,98.186,VALID,-0.012,VALID,19.283,VALID,120.0,VALID,1.981,
2018-06-14, 01:33:06,VALID,917.15,VALID,0.0,VALID,98.145,VALID,-0.01,VALID,19.281,VALID,131.0,VALID,1.744,
2018-06-14, 01:34:06,VALID,917.145,VALID,0.0,VALID,98.039,VALID,0.01,VALID,19.314,VALID,136.0,VALID,1.248,
2018-06-14, 01:35:06,VALID,917.116,VALID,0.0,VALID,97.958,VALID,0.006,VALID,19.333,VALID,130.0,VALID,1.568,
2018-06-14, 01:36:06,VALID,917.114,VALID,0.0,VALID,97.797,VALID,0.002,VALID,19.347,VALID,126.0,VALID,1.695,
2018-06-14, 01:37:06,VALID,917.083,VALID,0.0,VALID,97.546,VALID,0.006,VALID,19.361,VALID,132.0,VALID,1.2,
2018-06-14, 01:38:06,VALID,917.073,VALID,0.0,VALID,97.302,VALID,0.004,VALID,19.379,VALID,137.0,VALID,1.436,
2018-06-14, 01:39:06,VALID,917.067,VALID,0.0,VALID,97.152,VALID,-0.009,VALID,19.412,VALID,130.0,VALID,1.591,
2018-06-14, 01:40:06,VALID,917.038,VALID,0.0,VALID,96.985,VALID,-0.006,VALID,19.421,VALID,128.0,VALID,1.77,
2018-06-14, 01:41:06,VALID,917.027,VALID,0.0,VALID,96.811,VALID,-0.008,VALID,19.448,VALID,137.0,VALID,1.575,
2018-06-14, 01:42:06,VALID,917.002,VALID,0.0,VALID,96.65,VALID,0.008,VALID,19.465,VALID,138.0,VALID,1.123,
2018-06-14, 01:43:06,VALID,916.995,VALID,0.0,VALID,96.466,VALID,-0.008,VALID,19.468,VALID,148.0,VALID,0.97,
2018-06-14, 01:44:06,VALID,916.999,VALID,0.0,VALID,96.282,VALID,0.012,VALID,19.48,VALID,129.0,VALID,1.29,
2018-06-14, 01:45:06,VALID,917.001,VALID,0.0,VALID,96.13,VALID,-0.006,VALID,19.479,VALID,141.0,VALID,0.804,
2018-06-14, 01:46:06,VALID,917.005,VALID,0.0,VALID,96.069,VALID,-0.003,VALID,19.468,VALID,135.0,VALID,1.615,
2018-06-14, 01:47:06,VALID,917.015,VALID,0.0,VALID,96.023,VALID,0.01,VALID,19.49,VALID,131.0,VALID,1.936,
2018-06-14, 01:48:06,VALID,917.022,VALID,0.0,VALID,95.8,VALID,0.008,VALID,19.541,VALID,116.0,VALID,2.477,
2018-06-14, 01:49:06,VALID,917.028,VALID,0.0,VALID,95.258,VALID,0.0,VALID,19.637,VALID,112.0,VALID,2.191,
2018-06-14, 01:50:06,VALID,917.021,VALID,0.0,VALID,94.758,VALID,-0.014,VALID,19.702,VALID,120.0,VALID,2.249,
2018-06-14, 01:51:06,VALID,917.012,VALID,0.0,VALID,94.421,VALID,-0.01,VALID,19.736,VALID,128.0,VALID,1.962,
2018-06-14, 01:52:06,VALID,916.985,VALID,0.0,VALID,94.41,VALID,-0.007,VALID,19.75,VALID,134.0,VALID,1.611,
2018-06-14, 01:53:06,VALID,916.948,VALID,0.0,VALID,94.441,VALID,0.007,VALID,19.755,VALID,135.0,VALID,1.193,
2018-06-14, 01:54:06,VALID,916.926,VALID,0.0,VALID,94.471,VALID,-0.017,VALID,19.736,VALID,134.0,VALID,1.377,
2018-06-14, 01:55:06,VALID,916.891,VALID,0.0,VALID,94.645,VALID,-0.002,VALID,19.72,VALID,141.0,VALID,0.528,
2018-06-14, 01:56:06,VALID,916.886,VALID,0.0,VALID,94.792,VALID,0.009,VALID,19.726,VALID,139.0,VALID,1.069,
2018-06-14, 01:57:06,VALID,916.847,VALID,0.0,VALID,94.834,VALID,-0.005,VALID,19.759,VALID,163.0,VALID,0.611,
2018-06-14, 01:58:06,VALID,916.85,VALID,0.0,VALID,94.678,VALID,-0.011,VALID,19.804,VALID,136.0,VALID,0.657,
2018-06-14, 01:59:06,VALID,916.85,VALID,0.0,VALID,94.511,VALID,-0.015,VALID,19.804,VALID,149.0,VALID,0.789,
2018-06-14, 02:00:06,VALID,916.846,VALID,0.0,VALID,94.49,VALID,-0.041,VALID,19.833,VALID,143.0,VALID,0.858,
2018-06-14, 02:01:06,VALID,916.833,VALID,0.0,VALID,94.166,VALID,-0.023,VALID,19.91,VALID,154.0,VALID,0.82,
2018-06-14, 02:02:06,VALID,916.822,VALID,0.0,VALID,93.815,VALID,-0.022,VALID,19.966,VALID,165.0,VALID,0.102,
2018-06-14, 02:03:06,VALID,916.82,VALID,0.0,VALID,93.613,VALID,-0.021,VALID,19.971,VALID,166.0,VALID,0.291,
2018-06-14, 02:04:06,VALID,916.802,VALID,0.0,VALID,93.722,VALID,-0.016,VALID,19.938,VALID,151.0,VALID,0.097,
2018-06-14, 02:05:06,VALID,916.789,VALID,0.0,VALID,93.949,VALID,0.002,VALID,19.894,VALID,148.0,VALID,0.032,
2018-06-14, 02:06:06,VALID,916.779,VALID,0.0,VALID,94.139,VALID,0.011,VALID,19.841,VALID,158.0,VALID,0.13,
2018-06-14, 02:07:06,VALID,916.769,VALID,0.0,VALID,94.322,VALID,-0.014,VALID,19.787,VALID,163.0,VALID,0.0,
2018-06-14, 02:08:06,VALID,916.759,VALID,0.0,VALID,94.503,VALID,-0.007,VALID,19.736,VALID,165.0,VALID,0.0,
2018-06-14, 02:09:06,VALID,916.759,VALID,0.0,VALID,94.694,VALID,0.007,VALID,19.702,VALID,167.0,VALID,0.0,
2018-06-14, 02:10:06,VALID,916.75,VALID,0.0,VALID,94.826,VALID,0.0,VALID,19.673,VALID,166.0,VALID,0.0,
2018-06-14, 02:11:06,VALID,916.745,VALID,0.0,VALID,94.998,VALID,-0.005,VALID,19.648,VALID,166.0,VALID,0.0,
2018-06-14, 02:12:06,VALID,916.742,VALID,0.0,VALID,94.742,VALID,-0.003,VALID,19.588,VALID,106.0,VALID,0.0,
2018-06-14, 02:13:06,VALID,916.726,VALID,0.0,VALID,94.924,VALID,-0.009,VALID,19.504,VALID,69.0,VALID,0.0,
2018-06-14, 02:14:06,VALID,916.715,VALID,0.0,VALID,95.328,VALID,-0.004,VALID,19.435,VALID,69.0,VALID,0.0,
2018-06-14, 02:15:06,VALID,916.705,VALID,0.0,VALID,95.476,VALID,-0.001,VALID,19.39,VALID,69.0,VALID,0.0,
2018-06-14, 02:16:06,VALID,916.703,VALID,0.0,VALID,95.638,VALID,-0.021,VALID,19.325,VALID,69.0,VALID,0.0,
2018-06-14, 02:17:06,VALID,916.697,VALID,0.0,VALID,95.911,VALID,-0.016,VALID,19.275,VALID,69.0,VALID,0.0,
2018-06-14, 02:18:06,VALID,916.688,VALID,0.0,VALID,96.076,VALID,0.006,VALID,19.229,VALID,49.0,VALID,0.0,
2018-06-14, 02:19:06,VALID,916.703,VALID,0.0,VALID,96.42,VALID,-0.002,VALID,19.202,VALID,34.0,VALID,0.0,
2018-06-14, 02:20:06,VALID,916.704,VALID,0.0,VALID,96.327,VALID,-0.021,VALID,19.117,VALID,34.0,VALID,0.0,
2018-06-14, 02:21:06,VALID,916.732,VALID,0.0,VALID,96.739,VALID,-0.032,VALID,19.1,VALID,34.0,VALID,0.0,
2018-06-14, 02:22:06,VALID,916.737,VALID,0.0,VALID,96.903,VALID,-0.016,VALID,19.078,VALID,34.0,VALID,0.0,
2018-06-14, 02:23:06,VALID,916.747,VALID,0.0,VALID,97.01,VALID,-0.011,VALID,19.054,VALID,34.0,VALID,0.0,
2018-06-14, 02:24:06,VALID,916.757,VALID,0.0,VALID,97.179,VALID,-0.028,VALID,19.077,VALID,34.0,VALID,0.0,
2018-06-14, 02:25:06,VALID,916.736,VALID,0.0,VALID,97.075,VALID,-0.012,VALID,19.081,VALID,34.0,VALID,0.0,
2018-06-14, 02:26:06,VALID,916.742,VALID,0.0,VALID,97.064,VALID,-0.017,VALID,19.089,VALID,36.0,VALID,0.0,
2018-06-14, 02:27:06,VALID,916.729,VALID,0.0,VALID,96.906,VALID,-0.022,VALID,19.054,VALID,36.0,VALID,0.0,
2018-06-14, 02:28:06,VALID,916.724,VALID,0.0,VALID,96.981,VALID,-0.012,VALID,19.042,VALID,50.0,VALID,0.0,
2018-06-14, 02:29:06,VALID,916.706,VALID,0.0,VALID,97.154,VALID,-0.029,VALID,19.067,VALID,78.0,VALID,0.0,
2018-06-14, 02:30:06,VALID,916.688,VALID,0.0,VALID,97.02,VALID,-0.036,VALID,19.034,VALID,72.0,VALID,0.0,
2018-06-14, 02:31:06,VALID,916.696,VALID,0.0,VALID,96.95,VALID,-0.012,VALID,19.003,VALID,72.0,VALID,0.0,
2018-06-14, 02:32:06,VALID,916.683,VALID,0.0,VALID,97.24,VALID,-0.017,VALID,19.03,VALID,72.0,VALID,0.0,
2018-06-14, 02:33:06,VALID,916.683,VALID,0.0,VALID,97.17,VALID,-0.019,VALID,18.998,VALID,69.0,VALID,0.0,
2018-06-14, 02:34:06,VALID,916.682,VALID,0.0,VALID,97.332,VALID,0.004,VALID,18.996,VALID,69.0,VALID,0.0,
2018-06-14, 02:35:06,VALID,916.677,VALID,0.0,VALID,97.384,VALID,0.0,VALID,18.974,VALID,65.0,VALID,0.0,
2018-06-14, 02:36:06,VALID,916.688,VALID,0.0,VALID,97.423,VALID,-0.004,VALID,18.966,VALID,62.0,VALID,0.0,
2018-06-14, 02:37:06,VALID,916.692,VALID,0.0,VALID,97.612,VALID,-0.004,VALID,19.005,VALID,67.0,VALID,0.0,
2018-06-14, 02:38:06,VALID,916.704,VALID,0.0,VALID,97.626,VALID,0.011,VALID,19.006,VALID,69.0,VALID,0.0,
2018-06-14, 02:39:06,VALID,916.727,VALID,0.0,VALID,97.545,VALID,-0.001,VALID,18.988,VALID,98.0,VALID,0.0,
2018-06-14, 02:40:06,VALID,916.745,VALID,0.0,VALID,97.557,VALID,0.015,VALID,18.994,VALID,116.0,VALID,0.286,
2018-06-14, 02:41:06,VALID,916.748,VALID,0.0,VALID,97.702,VALID,0.022,VALID,19.045,VALID,118.0,VALID,1.095,
2018-06-14, 02:42:06,VALID,916.748,VALID,0.0,VALID,97.817,VALID,0.013,VALID,19.094,VALID,132.0,VALID,0.825,
2018-06-14, 02:43:06,VALID,916.748,VALID,0.0,VALID,97.896,VALID,-0.003,VALID,19.127,VALID,131.0,VALID,0.757,
2018-06-14, 02:44:06,VALID,916.73,VALID,0.0,VALID,97.944,VALID,0.013,VALID,19.136,VALID,131.0,VALID,0.049,
2018-06-14, 02:45:06,VALID,916.72,VALID,0.0,VALID,97.939,VALID,-0.017,VALID,19.113,VALID,125.0,VALID,0.0,
2018-06-14, 02:46:06,VALID,916.689,VALID,0.0,VALID,97.94,VALID,0.013,VALID,19.073,VALID,126.0,VALID,0.0,
2018-06-14, 02:47:06,VALID,916.672,VALID,0.0,VALID,97.942,VALID,0.017,VALID,19.021,VALID,126.0,VALID,0.0,
2018-06-14, 02:48:06,VALID,916.641,VALID,0.0,VALID,98.087,VALID,0.008,VALID,19.027,VALID,130.0,VALID,0.96,
2018-06-14, 02:49:06,VALID,916.627,VALID,0.0,VALID,98.211,VALID,0.002,VALID,19.03,VALID,131.0,VALID,0.977,
2018-06-14, 02:50:06,VALID,916.606,VALID,0.0,VALID,98.278,VALID,0.003,VALID,19.02,VALID,129.0,VALID,0.788,
2018-06-14, 02:51:06,VALID,916.583,VALID,0.0,VALID,98.345,VALID,0.004,VALID,19.014,VALID,121.0,VALID,0.834,
2018-06-14, 02:52:06,VALID,916.556,VALID,0.0,VALID,98.376,VALID,0.019,VALID,19.003,VALID,105.0,VALID,0.616,
2018-06-14, 02:53:06,VALID,916.526,VALID,0.0,VALID,98.402,VALID,0.022,VALID,19.006,VALID,104.0,VALID,0.467,
2018-06-14, 02:54:06,VALID,916.5,VALID,0.0,VALID,98.391,VALID,0.021,VALID,19.015,VALID,104.0,VALID,0.606,
2018-06-14, 02:55:06,VALID,916.474,VALID,0.0,VALID,98.347,VALID,0.023,VALID,19.027,VALID,103.0,VALID,0.457,
2018-06-14, 02:56:06,VALID,916.456,VALID,0.0,VALID,98.273,VALID,0.008,VALID,19.039,VALID,91.0,VALID,0.506,
2018-06-14, 02:57:06,VALID,916.437,VALID,0.0,VALID,98.141,VALID,0.007,VALID,19.023,VALID,79.0,VALID,0.277,
2018-06-14, 02:58:06,VALID,916.418,VALID,0.0,VALID,97.906,VALID,-0.008,VALID,18.981,VALID,93.0,VALID,0.115,
2018-06-14, 02:59:06,VALID,916.408,VALID,0.0,VALID,97.855,VALID,-0.007,VALID,18.99,VALID,103.0,VALID,0.102,
2018-06-14, 03:00:06,VALID,916.403,VALID,0.0,VALID,97.813,VALID,0.017,VALID,18.998,VALID,103.0,VALID,0.0,
2018-06-14, 03:01:06,VALID,916.395,VALID,0.0,VALID,97.727,VALID,0.019,VALID,18.987,VALID,103.0,VALID,0.0,
2018-06-14, 03:02:06,VALID,916.391,VALID,0.0,VALID,97.667,VALID,0.003,VALID,18.984,VALID,103.0,VALID,0.0,
2018-06-14, 03:03:06,VALID,916.382,VALID,0.0,VALID,97.606,VALID,0.003,VALID,18.97,VALID,76.0,VALID,0.0,
2018-06-14, 03:04:06,VALID,916.393,VALID,0.0,VALID,97.577,VALID,-0.011,VALID,18.965,VALID,11.0,VALID,0.002,
2018-06-14, 03:05:06,VALID,916.38,VALID,0.0,VALID,97.645,VALID,-0.013,VALID,18.983,VALID,356.0,VALID,0.335,
2018-06-14, 03:06:06,VALID,916.363,VALID,0.0,VALID,97.693,VALID,-0.016,VALID,19.001,VALID,357.0,VALID,0.0,
2018-06-14, 03:07:06,VALID,916.37,VALID,0.0,VALID,97.636,VALID,-0.03,VALID,19.002,VALID,357.0,VALID,0.0,
2018-06-14, 03:08:06,VALID,916.364,VALID,0.0,VALID,97.642,VALID,-0.02,VALID,19.022,VALID,2.0,VALID,0.0,
2018-06-14, 03:09:06,VALID,916.368,VALID,0.0,VALID,97.609,VALID,-0.03,VALID,19.056,VALID,11.0,VALID,0.0,
2018-06-14, 03:10:06,VALID,916.355,VALID,0.0,VALID,97.456,VALID,-0.017,VALID,19.073,VALID,44.0,VALID,0.166,
2018-06-14, 03:11:06,VALID,916.35,VALID,0.0,VALID,97.339,VALID,-0.02,VALID,19.122,VALID,34.0,VALID,0.584,
2018-06-14, 03:12:06,VALID,916.34,VALID,0.0,VALID,97.112,VALID,-0.011,VALID,19.177,VALID,54.0,VALID,0.62,
2018-06-14, 03:13:06,VALID,916.354,VALID,0.0,VALID,96.78,VALID,-0.01,VALID,19.214,VALID,69.0,VALID,0.395,
2018-06-14, 03:14:06,VALID,916.357,VALID,0.0,VALID,96.506,VALID,-0.022,VALID,19.249,VALID,65.0,VALID,0.443,
2018-06-14, 03:15:06,VALID,916.354,VALID,0.0,VALID,96.169,VALID,-0.014,VALID,19.246,VALID,23.0,VALID,0.217,
2018-06-14, 03:16:06,VALID,916.349,VALID,0.0,VALID,96.14,VALID,-0.024,VALID,19.23,VALID,1.0,VALID,0.0,
2018-06-14, 03:17:06,VALID,916.351,VALID,0.0,VALID,96.413,VALID,-0.019,VALID,19.231,VALID,360.0,VALID,0.0,
2018-06-14, 03:18:06,VALID,916.356,VALID,0.0,VALID,96.668,VALID,-0.017,VALID,19.22,VALID,360.0,VALID,0.0,
2018-06-14, 03:19:06,VALID,916.358,VALID,0.0,VALID,96.768,VALID,0.001,VALID,19.195,VALID,360.0,VALID,0.0,
2018-06-14, 03:20:06,VALID,916.362,VALID,0.0,VALID,96.927,VALID,0.021,VALID,19.164,VALID,360.0,VALID,0.0,
2018-06-14, 03:21:06,VALID,916.374,VALID,0.0,VALID,97.136,VALID,0.024,VALID,19.149,VALID,360.0,VALID,0.0,
2018-06-14, 03:22:06,VALID,916.399,VALID,0.0,VALID,97.265,VALID,0.022,VALID,19.158,VALID,36.0,VALID,0.0,
2018-06-14, 03:23:06,VALID,916.407,VALID,0.0,VALID,97.219,VALID,0.017,VALID,19.139,VALID,99.0,VALID,0.0,
2018-06-14, 03:24:06,VALID,916.406,VALID,0.0,VALID,97.18,VALID,-0.004,VALID,19.134,VALID,102.0,VALID,0.0,
2018-06-14, 03:25:06,VALID,916.416,VALID,0.0,VALID,97.164,VALID,0.001,VALID,19.138,VALID,102.0,VALID,0.0,
2018-06-14, 03:26:06,VALID,916.413,VALID,0.0,VALID,97.124,VALID,0.013,VALID,19.125,VALID,103.0,VALID,0.0,
2018-06-14, 03:27:06,VALID,916.415,VALID,0.0,VALID,97.07,VALID,0.013,VALID,19.102,VALID,120.0,VALID,0.0,
2018-06-14, 03:28:06,VALID,916.416,VALID,0.0,VALID,97.113,VALID,0.046,VALID,19.078,VALID,125.0,VALID,0.0,
2018-06-14, 03:29:06,VALID,916.385,VALID,0.0,VALID,97.133,VALID,0.018,VALID,19.058,VALID,127.0,VALID,0.0,
2018-06-14, 03:30:06,VALID,916.371,VALID,0.0,VALID,97.249,VALID,0.022,VALID,19.071,VALID,127.0,VALID,0.0,
2018-06-14, 03:31:06,VALID,916.358,VALID,0.0,VALID,97.306,VALID,0.031,VALID,19.085,VALID,127.0,VALID,0.0,
2018-06-14, 03:32:06,VALID,916.333,VALID,0.0,VALID,97.228,VALID,0.023,VALID,19.07,VALID,127.0,VALID,0.0,
2018-06-14, 03:33:06,VALID,916.319,VALID,0.0,VALID,97.165,VALID,0.013,VALID,19.054,VALID,127.0,VALID,0.0,
2018-06-14, 03:34:06,VALID,916.302,VALID,0.0,VALID,97.113,VALID,0.009,VALID,19.041,VALID,127.0,VALID,0.0,
2018-06-14, 03:35:06,VALID,916.31,VALID,0.0,VALID,97.054,VALID,0.018,VALID,19.013,VALID,127.0,VALID,0.0,
2018-06-14, 03:36:06,VALID,916.308,VALID,0.0,VALID,97.015,VALID,0.019,VALID,18.987,VALID,127.0,VALID,0.0,
2018-06-14, 03:37:06,VALID,916.313,VALID,0.0,VALID,96.77,VALID,0.029,VALID,18.922,VALID,128.0,VALID,0.0,
2018-06-14, 03:38:06,VALID,916.308,VALID,0.0,VALID,96.79,VALID,0.031,VALID,18.884,VALID,128.0,VALID,0.0,
2018-06-14, 03:39:06,VALID,916.296,VALID,0.0,VALID,96.965,VALID,0.038,VALID,18.874,VALID,166.0,VALID,0.0,
2018-06-14, 03:40:06,VALID,916.31,VALID,0.0,VALID,97.053,VALID,0.022,VALID,18.864,VALID,170.0,VALID,0.0,